STARLINK-5156 (53973 NORAD) Tracking and Keplerian Element Data

This shows tracking and keplerian element data for the satellite.

Feedback or suggestion? Click here.




ElementValue
Catalog53973
NameSTARLINK-5156
Epoch Orbit757
Epoch Day325.33334491
Epoch Year2022
RAAN230.5632
Inclination53.2138
Eccentricity0.000159
Argument of Perigee54.1217
Mean Anonmoly64.9564
Mean Motion15.08848261
Decay Rate-0.00027112
L11 53973U 22125K 22325.33334491 -.00027112 00000+0 -16914-2 0 9990
L22 53973 53.2138 230.5632 0001590 54.1217 64.9564 15.08848261 7573



Live tracking and technical data element details for STARLINK-5156 (NORAD 53973). STARLINK-5156 can be tracked NOW for your location showing map with azimuth and elevation plus other details from your city location.







IsCatalogInMostPopularTable: catalog: 53973, numindb: 2
Update: records affected: 1



GetName: 53973 STARLINK-5156

Hit Count: updated at: Mon, 28 Nov 2022 21:19:14 GMT